sat.trackr.live / text

‹ back to catalog

STARLINK-30979

NORAD 58485 · 2023-186N

PAYLOAD ACTIVE UNKNOWN

§ Identity

Operator
Country
US
Launch date
2023-12-03
Launch site
AFETR
Launch vehicle
Mass (kg)
RCS (m²)

Purposes: comms

External: N2YO · Heavens-Above · Gunter

§ Orbital elements

Epoch: 2026-09-20T20:47:18.033216Z

Period
94.27 min
Inclination
43.0005°
Eccentricity
0.0000930
Mean motion
15.27578572 rev/d
Perigee alt
482.4 km
Apogee alt
483.7 km
Semi-major
6,861.2 km
B*
1.6886e-5
RAAN
41.5887°
Arg perigee
265.8894°
Mean anomaly
94.1852°
Rev number
15,573

§ Raw data

STARLINK-309791 58485U 23186N   26263.86618094  .00000203  00000+0  16886-4 0  99982 58485  43.0005  41.5887 0000930 265.8894  94.1852 15.27578572155730

JSON: /api/v1/satellites/58485 · /tle

For live sub-satellite position, see the globe view (requires WebGL).

§ Visibility from observer

Set your observer location to see the next 7 days of passes ≥ 10°. The values pass through the URL so the page stays shareable.

No JS? Fill the form by hand. The geolocation button needs JavaScript.